Weather History for Tirana, Albania

Change the Weather History Date:

Saturday, October 5, 2013

  Actual Average Record
Temperature  
Mean Temperature 55 °F -  
Max Temperature 71 °F 68 °F - ()
Min Temperature 39 °F 50 °F - ()
Degree Days  
Heating Degree Days 10    
Growing Degree Days 5 (Base 50)    
Moisture  
Dew Point 41 °F    
Average Humidity 62    
Maximum Humidity 93    
Minimum Humidity 21    
Precipitation  
Precipitation 0.00 in -13.12 in - ()
Sea Level Pressure  
Sea Level Pressure 30.24 in    
Wind  
Wind Speed 2 mph ()    
Max Wind Speed 7 mph    
Max Gust Speed -    
Visibility 7.5 miles    
Events      
T = Trace of Precipitation, MM = Missing Value Source: Averaged Metar Reports

Daily Weather History Graph

Daily Weather History Graph

Search for Another Location

Airport:

Trip Planner

Search our weather history database for the weather conditions in past years. The results will help you decide how hot, cold, wet, or windy it might be!

Date:

Astronomy

Oct. 05, 2013 Rise Set
Actual Time 6:42 AM CEST 6:16 PM CEST
Civil Twilight 6:14 AM CEST 6:43 PM CEST
Nautical Twilight 5:42 AM CEST 7:15 PM CEST
Astronomical Twilight 5:10 AM CEST 7:48 PM CEST
Moon 7:02 AM CEST (10/5) 6:22 PM CEST (10/5)
Length of Visible Light 12h 29m
Length of Day
11h 34m
New Moon, 0% of the Moon is Illuminated
Oct 5
New Moon
Oct 12
First Quarter
Oct 19
Full
Oct 27
Last Quarter
Nov 3
New

Hourly Weather History & Observations

Time (CEST) Temp. Windchill Dew Point Humidity Pressure Visibility Wind Dir Wind Speed Gust Speed Precip Events Conditions
12:20 AM 44.6 °F - 39.2 °F 81% 30.30 in - Calm Calm - N/A   Clear
12:50 AM 44.6 °F - 39.2 °F 81% 30.30 in - Calm Calm - N/A   Clear
1:20 AM 44.6 °F - 41.0 °F 87% 30.30 in - Calm Calm - N/A   Clear
1:50 AM 42.8 °F - 39.2 °F 87% 30.30 in - Calm Calm - N/A   Clear
2:20 AM 42.8 °F - 39.2 °F 87% 30.30 in - Variable 1.2 mph - N/A   Clear
2:50 AM 42.8 °F - 39.2 °F 87% 30.27 in - Variable 1.2 mph - N/A   Clear
3:20 AM 41.0 °F - 39.2 °F 93% 30.27 in - Calm Calm - N/A   Clear
3:50 AM 41.0 °F - 37.4 °F 87% 30.27 in - SSE 2.3 mph - N/A   Clear
4:20 AM 39.2 °F 37.0 °F 35.6 °F 87% 30.27 in - ESE 3.5 mph - N/A   Clear
4:50 AM 39.2 °F - 37.4 °F 93% 30.27 in - Calm Calm - N/A   Clear
5:00 AM 41 °F - 38 °F 86% 30.27 in 14 mi SSW 2.2 mph - -  
5:20 AM 41.0 °F - 37.4 °F 87% 30.24 in - SSE 2.3 mph - N/A   Clear
5:50 AM 39.2 °F - 37.4 °F 93% 30.24 in - SSE 2.3 mph - N/A   Clear
6:20 AM 39.2 °F 37.0 °F 35.6 °F 87% 30.24 in - SSE 3.5 mph - N/A   Clear
6:50 AM 39.2 °F - 35.6 °F 87% 30.24 in - SE 2.3 mph - N/A   Clear
7:20 AM 39.2 °F - 35.6 °F 87% 30.27 in - Variable 2.3 mph - N/A   Clear
7:50 AM 44.6 °F - 39.2 °F 81% 30.27 in - SSW 2.3 mph - N/A   Clear
8:20 AM 46.4 °F - 41.0 °F 81% 30.27 in - Variable 2.3 mph - N/A   Clear
8:50 AM 51.8 °F - 41.0 °F 67% 30.27 in - Variable 2.3 mph - N/A   Clear
9:20 AM 55.4 °F - 41.0 °F 58% 30.27 in - South 3.5 mph - N/A   Clear
9:50 AM 60.8 °F - 39.2 °F 45% 30.27 in - Calm Calm - N/A   Clear
10:20 AM 62.6 °F - 35.6 °F 37% 30.24 in - Calm Calm - N/A   Clear
10:50 AM 64.4 °F - 39.2 °F 40% 30.24 in - Variable 2.3 mph - N/A   Clear
11:00 AM 65 °F - 35 °F 22% 30.26 in 17 mi 2.2 mph - -  
11:20 AM 66.2 °F - 32.0 °F 28% 30.24 in - NNE 2.3 mph - N/A   Clear
11:50 AM 68.0 °F - 26.6 °F 21% 30.27 in - Calm Calm - N/A   Clear
12:20 PM 68.0 °F - 28.4 °F 23% 30.24 in - NW 3.5 mph - N/A   Clear
12:50 PM 69.8 °F - 33.8 °F 27% 30.24 in - Calm Calm - N/A   Clear
1:20 PM 69.8 °F - 35.6 °F 28% 30.24 in - Variable 2.3 mph - N/A   Clear
1:50 PM 71.6 °F - 35.6 °F 27% 30.24 in - Variable 2.3 mph - N/A   Clear
2:20 PM 71.6 °F - 39.2 °F 31% 30.24 in - West 4.6 mph - N/A   Clear
2:50 PM 69.8 °F - 39.2 °F 33% 30.24 in - Variable 6.9 mph - N/A   Clear
3:20 PM 71.6 °F - 41.0 °F 33% 30.24 in - West 4.6 mph - N/A   Clear
3:50 PM 71.6 °F - 41.0 °F 33% 30.21 in - WSW 5.8 mph - N/A   Clear
4:20 PM 69.8 °F - 44.6 °F 40% 30.21 in - WSW 5.8 mph - N/A   Clear
4:50 PM 69.8 °F - 42.8 °F 38% 30.21 in - WNW 3.5 mph - N/A   Clear
5:00 PM 68 °F - 48 °F 37% 30.22 in 34 mi NNW 4.5 mph - -  
5:20 PM 68.0 °F - 46.4 °F 46% 30.21 in 6.2 mi North 4.6 mph - N/A   Scattered Clouds
5:50 PM 64.4 °F - 46.4 °F 52% 30.21 in 6.2 mi NNW 3.5 mph - N/A   Scattered Clouds
6:20 PM 62.6 °F - 48.2 °F 59% 30.21 in 6.2 mi NW 4.6 mph - N/A   Mostly Cloudy
6:50 PM 62.6 °F - 46.4 °F 55% 30.18 in 6.2 mi North 2.3 mph - N/A   Scattered Clouds
7:20 PM 59.0 °F - 48.2 °F 67% 30.18 in 6.2 mi Calm Calm - N/A   Scattered Clouds
7:50 PM 59.0 °F - 48.2 °F 67% 30.18 in 6.2 mi Calm Calm - N/A   Scattered Clouds
8:20 PM 59.0 °F - 48.2 °F 67% 30.21 in 6.2 mi Calm Calm - N/A   Scattered Clouds
8:50 PM 59.0 °F - 50.0 °F 72% 30.21 in 6.2 mi SSE 2.3 mph - N/A   Mostly Cloudy
9:20 PM 57.2 °F - 48.2 °F 72% 30.21 in 6.2 mi Calm Calm - N/A   Scattered Clouds
9:50 PM 57.2 °F - 48.2 °F 72% 30.21 in 6.2 mi South 3.5 mph - N/A   Mostly Cloudy
10:20 PM 57.2 °F - 50.0 °F 77% 30.21 in 6.2 mi South 3.5 mph - N/A   Mostly Cloudy
10:50 PM 59.0 °F - 50.0 °F 72% 30.21 in 6.2 mi SSE 3.5 mph - N/A   Mostly Cloudy
11:00 PM 58 °F - 50 °F 67% 30.22 in 9 mi SSE 4.5 mph - -   Partly Cloudy
11:20 PM 59.0 °F - 50.0 °F 72% 30.21 in 6.2 mi SSE 5.8 mph - N/A   Mostly Cloudy
11:50 PM 59.0 °F - 50.0 °F 72% 30.18 in 6.2 mi South 4.6 mph - N/A   Mostly Cloudy